Seleccione otro periodo ( Ocultar esta area )

Unidades Periodo Rango personalizado Directo a
Metrico Inglés Ambos
Diario Semanal Mensual Anual
Use ambos selectores de fecha para rango personalizado
Anterior Dia
Con esta fecha

WeatherUnderground gráficos para este periodo ( click aquí ) Cargando el gráfico !


Diario Resumen para Sabado May 18 2024
Hora Temp. ( °C ) Punto de rocio. ( °C ) Viento ( km/h ) Dirección Ráfaga ( km/h ) Presión ( hPa ) Humid.( % ) Lluvia ( cm ) Solar ( W/m2 )
Max24,6 15,7 24,0 ENE ( 949/1941 ) 42,0 1011,8 81 - 1007
Media20,0 12,9 8,9 ENE #47/217 16,7 1010,3 65 - 639 #136/217
Min14,9 7,7 -   3,0 1009,1 45 -  
Diario Tabular detalles de Sabado May 18 2024
Hora Temp. ( °C ) Punto de rocio. ( °C ) Viento ( km/h ) Dirección Ráfaga ( km/h ) Presión ( hPa ) Humid.( % ) Lluvia ( cm ) Solar ( W/m2 )
00:04 20,3 7,9 5,0 NNE 8,0 1009,4 45 - -
00:09 20,3 7,9 5,0 NNE 8,0 1009,4 45 - -
00:14 20,3 7,9 5,0 Norte 8,0 1009,4 45 - -
00:19 20,2 7,9 5,0 NNW 8,0 1009,4 45 - -
00:24 20,1 7,8 5,0 NNW 8,0 1009,4 45 - -
00:29 19,9 7,7 5,0 Norte 8,0 1009,4 45 - -
00:34 19,9 7,9 5,0 Norte 8,0 1009,4 46 - -
00:39 19,8 7,9 5,0 Norte 8,0 1009,4 46 - -
00:44 19,8 7,8 5,0 Norte 8,0 1009,5 46 - -
00:49 19,6 7,9 5,0 NNW 8,0 1009,5 47 - -
00:54 19,3 7,7 3,0 NW 10,0 1009,5 47 - -
00:59 19,3 7,7 5,0 Oeste 10,0 1009,6 47 - -
01:04 19,3 7,7 3,0 WSW 10,0 1009,7 47 - -
01:09 19,3 7,7 3,0 Oeste 6,0 1009,7 47 - -
01:14 19,3 7,7 3,0 Oeste 13,0 1009,7 47 - -
01:19 19,4 8,2 5,0 WNW 13,0 1009,7 48 - -
01:24 19,4 8,4 5,0 WNW 13,0 1009,7 49 - -
01:29 19,4 9,5 6,0 WNW 11,0 1009,7 53 - -
01:34 19,3 10,5 6,0 NW 13,0 1009,7 57 - -
01:39 19,2 11,1 5,0 NW 13,0 1009,8 60 - -
01:44 19,1 11,5 5,0 NW 13,0 1009,7 62 - -
01:49 18,9 12,1 6,0 NW 13,0 1009,7 65 - -
01:54 18,8 12,4 6,0 NW 13,0 1009,7 67 - -
01:59 18,6 12,7 6,0 WNW 13,0 1009,7 69 - -
02:04 18,4 12,8 6,0 WNW 13,0 1009,6 70 - -
02:09 18,3 12,9 6,0 WNW 13,0 1009,7 71 - -
02:14 18,2 13,0 5,0 WNW 13,0 1009,7 72 - -
02:19 18,1 13,2 5,0 WNW 11,0 1010,0 73 - -
02:24 18,0 13,2 5,0 WNW 11,0 1010,0 74 - -
02:29 17,9 13,2 5,0 Oeste 11,0 1009,7 74 - -
02:34 17,8 13,1 3,0 Oeste 10,0 1009,6 74 - -
02:39 17,7 13,0 3,0 WSW 6,0 1009,6 74 - -
02:44 17,6 12,7 5,0 SW 6,0 1009,6 73 - -
02:49 17,4 12,5 5,0 SW 6,0 1009,6 73 - -
02:54 17,4 12,5 5,0 SW 6,0 1009,6 73 - -
02:59 17,3 12,4 5,0 WSW 6,0 1009,6 73 - -
03:04 17,3 12,4 3,0 WSW 6,0 1009,5 73 - -
03:09 17,3 12,4 3,0 SW 6,0 1009,5 73 - -
03:14 17,2 12,3 2,0 SW 5,0 1009,5 73 - -
03:19 17,2 12,3 3,0 SW 6,0 1009,5 73 - -
03:24 17,2 12,3 3,0 SW 6,0 1009,5 73 - -
03:29 17,1 12,2 3,0 SW 6,0 1009,5 73 - -
03:34 17,1 12,2 3,0 SW 6,0 1009,5 73 - -
03:39 17,0 12,1 3,0 SW 5,0 1009,5 73 - -
03:44 16,9 12,2 3,0 SW 5,0 1009,5 74 - -
03:49 16,8 12,2 3,0 SSW 6,0 1009,6 74 - -
03:54 16,8 12,2 3,0 SSW 6,0 1009,6 74 - -
03:59 16,8 12,4 3,0 SW 6,0 1009,6 75 - -
04:04 16,9 12,6 3,0 WSW 5,0 1009,6 76 - -
04:09 16,9 12,6 3,0 WSW 5,0 1009,7 76 - -
04:14 16,8 12,6 2,0 WSW 6,0 1009,7 76 - -
04:19 16,8 12,5 3,0 Oeste 6,0 1009,7 76 - -
04:24 16,8 12,5 3,0 WSW 6,0 1009,7 76 - -
04:29 16,8 12,5 3,0 WSW 6,0 1009,7 76 - -
04:34 16,7 12,4 3,0 SW 5,0 1009,7 76 - -
04:39 16,7 12,4 3,0 WSW 5,0 1009,7 76 - -
04:44 16,7 12,6 2,0 WSW 3,0 1009,7 77 - -
04:49 16,6 12,5 2,0 WSW 3,0 1009,7 77 - -
04:54 16,5 12,4 2,0 WSW 3,0 1009,7 77 - -
04:59 16,4 12,6 2,0 WSW 5,0 1009,6 78 - -
05:04 16,4 12,6 3,0 WSW 5,0 1009,6 78 - -
05:09 16,3 12,5 3,0 WSW 5,0 1009,7 78 - -
05:14 16,3 12,4 2,0 WSW 5,0 1009,7 78 - -
05:19 16,3 12,6 2,0 WSW 5,0 1009,7 79 - -
05:24 16,3 12,6 2,0 WSW 5,0 1009,7 79 - -
05:29 16,3 12,6 2,0 WSW 5,0 1009,7 79 - -
05:34 16,3 12,6 2,0 WSW 5,0 1009,6 79 - -
05:39 16,2 12,6 2,0 WSW 3,0 1009,6 79 - -
05:44 16,2 12,5 2,0 WSW 3,0 1009,6 79 - -
05:49 16,1 12,4 2,0 NW 5,0 1009,6 79 - -
05:54 15,9 12,3 2,0 NW 5,0 1009,7 79 - -
05:59 15,8 12,2 2,0 NW 5,0 1009,7 79 - -
06:04 15,7 12,2 2,0 NW 5,0 1009,7 80 - -
06:09 15,6 12,1 2,0 NW 5,0 1009,7 80 - -
06:14 15,4 12,0 2,0 NW 3,0 1009,8 80 - -
06:19 15,3 12,1   Calma 5,0 1009,9 81 - -
06:24 15,3 12,1 2,0 WNW 5,0 1009,9 81 - -
06:29 15,3 12,1 3,0 WNW 5,0 1010,0 81 - -
06:34 15,3 11,8 2,0 WNW 5,0 1010,0 80 - -
06:39 15,2 11,8 2,0 WSW 5,0 1010,0 80 - -
06:44 15,2 11,7 3,0 SW 5,0 1010,1 80 - -
06:49 15,1 11,4 3,0 SW 5,0 1010,1 79 - 5
06:54 15,0 11,4 3,0 SW 5,0 1010,2 79 - 7
06:59 14,9 11,3 3,0 SSW 6,0 1010,2 79 - 11
07:04 14,9 11,5 3,0 Sur 6,0 1010,3 80 - 14
07:09 14,9 11,4 3,0 Sur 6,0 1010,3 80 - 19
07:14 14,9 11,5 3,0 Sur 5,0 1010,3 80 - 26
07:19 15,0 11,8 2,0 Sur 5,0 1010,5 81 - 33
07:24 15,1 11,8 2,0 Sur 5,0 1010,5 81 - 53
07:29 15,1 11,9 2,0 Sur 3,0 1010,5 81 - 69
07:34 15,2 12,0 2,0 Sur 3,0 1010,6 81 - 81
07:39 15,3 12,1 2,0 Sur 3,0 1010,6 81 - 70
07:44 15,4 12,2 2,0 SSW 5,0 1010,7 81 - 114
07:49 15,6 12,3 2,0 SSW 5,0 1010,7 81 - 130
07:54 15,7 12,4 2,0 SSW 5,0 1010,7 81 - 171
07:59 15,9 12,5 2,0 SSW 6,0 1010,7 80 - 185
08:04 16,2 12,7 3,0 SSW 6,0 1010,8 80 - 181
08:09 16,4 12,8 3,0 SSW 6,0 1011,0 80 - 206
08:14 16,7 12,8 2,0 SSW 5,0 1011,0 79 - 209
08:19 16,9 13,0 2,0 Oeste 5,0 1011,1 78 - 260
08:24 17,2 13,1 2,0 NNW 5,0 1011,2 77 - 260
08:29 17,3 13,0 2,0 NNW 5,0 1011,2 76 - 121
08:34 17,3 13,0 2,0 NNW 5,0 1011,3 76 - 327
08:39 17,4 12,9 3,0 NNW 5,0 1011,4 75 - 353
08:44 17,6 13,1 3,0 NNW 5,0 1011,4 75 - 364
08:49 17,7 13,2 2,0 NW 5,0 1011,5 75 - 366
08:54 17,8 13,1 3,0 NNW 6,0 1011,6 74 - 197
08:59 17,8 13,1 3,0 Norte 6,0 1011,6 74 - 424
09:04 17,9 13,4 2,0 Norte 6,0 1011,6 75 - 401
09:09 18,0 13,9 2,0 WNW 5,0 1011,7 77 - 390
09:14 18,2 14,3 2,0 Oeste 6,0 1011,7 78 - 406
09:19 18,2 14,3 3,0 WNW 6,0 1011,7 78 - 418
09:24 18,4 14,4 3,0 WNW 6,0 1011,7 78 - 446
09:29 18,5 14,4 3,0 NW 6,0 1011,7 77 - 464
09:34 18,6 14,4 3,0 NW 8,0 1011,8 77 - 487
09:39 18,8 14,4 3,0 NNW 8,0 1011,8 76 - 494
09:44 18,9 14,3 3,0 NNW 8,0 1011,8 75 - 504
09:49 19,2 14,4 3,0 NW 8,0 1011,8 74 - 520
09:54 19,7 14,6 5,0 Norte 10,0 1011,8 73 - 536
09:59 20,0 14,6 5,0 NNE 10,0 1011,8 72 - 555
10:04 20,1 14,6 5,0 NE 10,0 1011,8 71 - 571
10:09 20,1 14,2 5,0 Norte 8,0 1011,8 69 - 640
10:14 20,1 14,3 5,0 Norte 10,0 1011,7 70 - 659
10:19 20,5 14,4 3,0 NNE 11,0 1011,7 69 - 663
10:24 20,6 14,4 6,0 WNW 13,0 1011,8 68 - 657
10:29 20,3 14,2 6,0 WNW 13,0 1011,8 68 - 670
10:34 20,3 14,2 6,0 WNW 13,0 1011,7 68 - 670
10:39 20,3 13,8 3,0 SSW 8,0 1011,7 66 - 701
10:44 20,9 13,7 5,0 SE 13,0 1011,7 65 - 682
10:49 21,3 13,7 5,0 NNE 15,0 1011,7 62 - 687
10:54 21,4 14,1 5,0 NNE 15,0 1011,6 63 - 700
10:59 21,2 13,7 5,0 Norte 15,0 1011,6 62 - 712
11:04 21,7 13,9 6,0 NNW 16,0 1011,6 61 - 721
11:09 21,9 13,9 6,0 Norte 16,0 1011,6 61 - 737
11:14 21,8 13,7 6,0 NE 18,0 1011,6 60 - 756
11:19 21,7 13,6 6,0 ENE 18,0 1011,5 61 - 758
11:24 22,3 14,1 6,0 ENE 18,0 1011,5 61 - 786
11:29 22,4 14,1 6,0 Norte 16,0 1011,5 59 - 786
11:34 22,4 14,1 6,0 NNW 16,0 1011,5 59 - 824
11:39 22,4 13,9 5,0 NW 16,0 1011,4 59 - 802
11:44 22,7 13,8 5,0 NNW 16,0 1011,4 58 - 821
11:49 23,1 13,9 8,0 NNW 16,0 1011,3 57 - 847
11:54 23,1 13,8 8,0 Norte 19,0 1011,2 56 - 853
11:59 23,0 13,7 8,0 Norte 19,0 1011,2 56 - 872
12:04 23,4 13,7 6,0 NNW 19,0 1011,2 56 - 893
12:09 23,7 13,7 6,0 NW 13,0 1011,2 54 - 914
12:14 23,8 13,6 6,0 NNW 19,0 1011,2 53 - 909
12:19 23,8 13,4 8,0 NNE 21,0 1011,2 52 - 962
12:24 24,1 13,9 10,0 NNE 21,0 1011,1 53 - 995
12:29 24,2 14,6 8,0 NE 23,0 1011,1 56 - 912
12:34 23,8 14,9 11,0 ENE 31,0 1011,1 59 - 993
12:39 23,4 14,9 15,0 ENE 31,0 1011,1 59 - 1007
12:44 23,5 15,2 16,0 ENE 31,0 1011,1 60 - 991
12:49 23,7 15,2 16,0 ENE 27,0 1011,2 59 - 969
12:54 23,7 15,2 18,0 ENE 27,0 1011,1 59 - 949
12:59 23,8 15,6 18,0 ENE 29,0 1011,0 60 - 956
13:04 23,9 15,7 16,0 Este 29,0 1011,0 60 - 944
13:09 23,7 15,3 18,0 Este 34,0 1011,1 60 - 925
13:14 23,7 15,2 18,0 ENE 34,0 1011,0 59 - 928
13:19 23,4 15,2 19,0 ENE 34,0 1010,9 60 - 928
13:24 23,6 15,6 19,0 ENE 32,0 1010,9 61 - 926
13:29 23,7 15,4 19,0 ENE 32,0 1010,8 60 - 930
13:34 23,4 14,9 19,0 Este 31,0 1010,8 59 - 935
13:39 23,4 15,2 18,0 Este 32,0 1010,8 60 - 935
13:44 23,3 15,3 19,0 Este 37,0 1010,7 61 - 935
13:49 23,4 15,4 19,0 Este 37,0 1010,6 61 - 939
13:54 23,6 15,3 19,0 Este 37,0 1010,6 60 - 939
13:59 23,8 15,6 19,0 Este 34,0 1010,5 60 - 933
14:04 23,8 15,3 19,0 Este 34,0 1010,4 59 - 933
14:09 23,8 15,4 19,0 Este 37,0 1010,4 60 - 930
14:14 23,9 15,7 19,0 Este 37,0 1010,3 60 - 926
14:19 23,9 15,4 19,0 Este 37,0 1010,3 59 - 926
14:24 23,9 15,2 19,0 Este 32,0 1010,3 58 - 926
14:29 23,9 15,4 19,0 Este 32,0 1010,3 59 - 923
14:34 23,9 15,4 19,0 ENE 32,0 1010,2 59 - 921
14:39 23,8 15,3 21,0 ENE 32,0 1010,2 59 - 918
14:44 23,9 15,4 21,0 Este 32,0 1010,1 59 - 914
14:49 23,8 15,1 23,0 Este 35,0 1010,1 58 - 912
14:54 23,7 15,1 23,0 Este 35,0 1010,0 59 - 907
14:59 23,7 15,2 21,0 Este 35,0 1009,9 59 - 904
15:04 23,6 15,0 21,0 Este 37,0 1010,0 59 - 900
15:09 23,6 15,1 23,0 ENE 37,0 1010,0 59 - 893
15:14 23,4 14,7 23,0 Este 37,0 1009,9 58 - 889
15:19 23,4 14,4 23,0 ENE 39,0 1009,8 57 - 882
15:24 23,6 14,4 23,0 ENE 39,0 1009,8 57 - 875
15:29 23,6 14,3 24,0 ENE 39,0 1009,9 57 - 865
15:34 23,6 14,6 24,0 ENE 39,0 1009,8 57 - 861
15:39 23,7 14,7 23,0 ENE 39,0 1009,8 57 - 849
15:44 23,7 14,7 24,0 ENE 42,0 1009,8 57 - 838
15:49 23,4 13,8 24,0 ENE 42,0 1009,7 55 - 835
15:54 23,5 13,9 24,0 ENE 42,0 1009,7 55 - 826
15:59 23,9 13,8 21,0 ENE 39,0 1009,7 54 - 816
16:04 24,0 12,9 21,0 ENE 35,0 1009,7 50 - 809
16:09 24,1 12,7 21,0 ENE 37,0 1009,7 49 - 800
16:14 24,1 13,5 23,0 ENE 37,0 1009,6 52 - 782
16:19 23,9 13,7 23,0 ENE 37,0 1009,4 53 - 777
16:24 24,0 13,8 23,0 ENE 37,0 1009,5 53 - 763
16:29 24,1 13,9 21,0 ENE 37,0 1009,5 53 - 763
16:34 24,1 13,0 23,0 ENE 37,0 1009,5 50 - 747
16:39 24,2 13,1 23,0 ENE 37,0 1009,4 50 - 742
16:44 24,6 13,3 23,0 ENE 34,0 1009,4 50 - 724
16:49 24,6 13,7 19,0 ENE 32,0 1009,3 51 - 707
16:54 24,5 13,7 19,0 ENE 34,0 1009,3 51 - 691
16:59 24,5 13,7 21,0 NE 34,0 1009,2 51 - 680
17:04 24,4 13,4 21,0 ENE 35,0 1009,2 51 - 666
17:09 24,1 13,3 23,0 ENE 39,0 1009,2 51 - 647
17:14 24,1 13,3 23,0 ENE 39,0 1009,1 51 - 617
17:19 24,2 13,3 21,0 ENE 39,0 1009,2 51 - 557
17:24 24,2 13,1 19,0 ENE 32,0 1009,2 50 - 510
17:29 24,1 13,1 21,0 ENE 32,0 1009,2 50 - 471
17:34 24,1 12,7 23,0 ENE 32,0 1009,2 49 - 446
17:39 24,2 12,8 19,0 ENE 32,0 1009,2 49 - 443
17:44 24,1 12,7 19,0 ENE 40,0 1009,2 49 - 445
17:49 24,1 13,1 21,0 ENE 40,0 1009,2 50 - 445
17:54 23,9 12,6 23,0 ENE 40,0 1009,1 49 - 439
17:59 24,1 12,0 23,0 ENE 35,0 1009,1 47 - 425
18:04 24,1 11,8 23,0 NE 35,0 1009,1 46 - 401
Diario Resumen para Sabado May 18 2024
Hora Temp. ( °C ) Punto de rocio. ( °C ) Viento ( km/h ) Dirección Ráfaga ( km/h ) Presión ( hPa ) Humid.( % ) Lluvia ( cm ) Solar ( W/m2 )
Max24,6 15,7 24,0 ENE ( 949/1941 ) 42,0 1011,8 81 - 1007
Media20,0 12,9 8,9 ENE #47/217 16,7 1010,3 65 - 639 #136/217
Min14,9 7,7 -   3,0 1009,1 45 -  
Diario Tabular detalles de Sabado May 18 2024
Hora Temp. ( °C ) Punto de rocio. ( °C ) Viento ( km/h ) Dirección Ráfaga ( km/h ) Presión ( hPa ) Humid.( % ) Lluvia ( cm ) Solar ( W/m2 )
00:04 20,3 7,9 5,0 NNE 8,0 1009,4 45 - -
00:09 20,3 7,9 5,0 NNE 8,0 1009,4 45 - -
00:14 20,3 7,9 5,0 Norte 8,0 1009,4 45 - -
00:19 20,2 7,9 5,0 NNW 8,0 1009,4 45 - -
00:24 20,1 7,8 5,0 NNW 8,0 1009,4 45 - -
00:29 19,9 7,7 5,0 Norte 8,0 1009,4 45 - -
00:34 19,9 7,9 5,0 Norte 8,0 1009,4 46 - -
00:39 19,8 7,9 5,0 Norte 8,0 1009,4 46 - -
00:44 19,8 7,8 5,0 Norte 8,0 1009,5 46 - -
00:49 19,6 7,9 5,0 NNW 8,0 1009,5 47 - -
00:54 19,3 7,7 3,0 NW 10,0 1009,5 47 - -
00:59 19,3 7,7 5,0 Oeste 10,0 1009,6 47 - -
01:04 19,3 7,7 3,0 WSW 10,0 1009,7 47 - -
01:09 19,3 7,7 3,0 Oeste 6,0 1009,7 47 - -
01:14 19,3 7,7 3,0 Oeste 13,0 1009,7 47 - -
01:19 19,4 8,2 5,0 WNW 13,0 1009,7 48 - -
01:24 19,4 8,4 5,0 WNW 13,0 1009,7 49 - -
01:29 19,4 9,5 6,0 WNW 11,0 1009,7 53 - -
01:34 19,3 10,5 6,0 NW 13,0 1009,7 57 - -
01:39 19,2 11,1 5,0 NW 13,0 1009,8 60 - -
01:44 19,1 11,5 5,0 NW 13,0 1009,7 62 - -
01:49 18,9 12,1 6,0 NW 13,0 1009,7 65 - -
01:54 18,8 12,4 6,0 NW 13,0 1009,7 67 - -
01:59 18,6 12,7 6,0 WNW 13,0 1009,7 69 - -
02:04 18,4 12,8 6,0 WNW 13,0 1009,6 70 - -
02:09 18,3 12,9 6,0 WNW 13,0 1009,7 71 - -
02:14 18,2 13,0 5,0 WNW 13,0 1009,7 72 - -
02:19 18,1 13,2 5,0 WNW 11,0 1010,0 73 - -
02:24 18,0 13,2 5,0 WNW 11,0 1010,0 74 - -
02:29 17,9 13,2 5,0 Oeste 11,0 1009,7 74 - -
02:34 17,8 13,1 3,0 Oeste 10,0 1009,6 74 - -
02:39 17,7 13,0 3,0 WSW 6,0 1009,6 74 - -
02:44 17,6 12,7 5,0 SW 6,0 1009,6 73 - -
02:49 17,4 12,5 5,0 SW 6,0 1009,6 73 - -
02:54 17,4 12,5 5,0 SW 6,0 1009,6 73 - -
02:59 17,3 12,4 5,0 WSW 6,0 1009,6 73 - -
03:04 17,3 12,4 3,0 WSW 6,0 1009,5 73 - -
03:09 17,3 12,4 3,0 SW 6,0 1009,5 73 - -
03:14 17,2 12,3 2,0 SW 5,0 1009,5 73 - -
03:19 17,2 12,3 3,0 SW 6,0 1009,5 73 - -
03:24 17,2 12,3 3,0 SW 6,0 1009,5 73 - -
03:29 17,1 12,2 3,0 SW 6,0 1009,5 73 - -
03:34 17,1 12,2 3,0 SW 6,0 1009,5 73 - -
03:39 17,0 12,1 3,0 SW 5,0 1009,5 73 - -
03:44 16,9 12,2 3,0 SW 5,0 1009,5 74 - -
03:49 16,8 12,2 3,0 SSW 6,0 1009,6 74 - -
03:54 16,8 12,2 3,0 SSW 6,0 1009,6 74 - -
03:59 16,8 12,4 3,0 SW 6,0 1009,6 75 - -
04:04 16,9 12,6 3,0 WSW 5,0 1009,6 76 - -
04:09 16,9 12,6 3,0 WSW 5,0 1009,7 76 - -
04:14 16,8 12,6 2,0 WSW 6,0 1009,7 76 - -
04:19 16,8 12,5 3,0 Oeste 6,0 1009,7 76 - -
04:24 16,8 12,5 3,0 WSW 6,0 1009,7 76 - -
04:29 16,8 12,5 3,0 WSW 6,0 1009,7 76 - -
04:34 16,7 12,4 3,0 SW 5,0 1009,7 76 - -
04:39 16,7 12,4 3,0 WSW 5,0 1009,7 76 - -
04:44 16,7 12,6 2,0 WSW 3,0 1009,7 77 - -
04:49 16,6 12,5 2,0 WSW 3,0 1009,7 77 - -
04:54 16,5 12,4 2,0 WSW 3,0 1009,7 77 - -
04:59 16,4 12,6 2,0 WSW 5,0 1009,6 78 - -
05:04 16,4 12,6 3,0 WSW 5,0 1009,6 78 - -
05:09 16,3 12,5 3,0 WSW 5,0 1009,7 78 - -
05:14 16,3 12,4 2,0 WSW 5,0 1009,7 78 - -
05:19 16,3 12,6 2,0 WSW 5,0 1009,7 79 - -
05:24 16,3 12,6 2,0 WSW 5,0 1009,7 79 - -
05:29 16,3 12,6 2,0 WSW 5,0 1009,7 79 - -
05:34 16,3 12,6 2,0 WSW 5,0 1009,6 79 - -
05:39 16,2 12,6 2,0 WSW 3,0 1009,6 79 - -
05:44 16,2 12,5 2,0 WSW 3,0 1009,6 79 - -
05:49 16,1 12,4 2,0 NW 5,0 1009,6 79 - -
05:54 15,9 12,3 2,0 NW 5,0 1009,7 79 - -
05:59 15,8 12,2 2,0 NW 5,0 1009,7 79 - -
06:04 15,7 12,2 2,0 NW 5,0 1009,7 80 - -
06:09 15,6 12,1 2,0 NW 5,0 1009,7 80 - -
06:14 15,4 12,0 2,0 NW 3,0 1009,8 80 - -
06:19 15,3 12,1   Calma 5,0 1009,9 81 - -
06:24 15,3 12,1 2,0 WNW 5,0 1009,9 81 - -
06:29 15,3 12,1 3,0 WNW 5,0 1010,0 81 - -
06:34 15,3 11,8 2,0 WNW 5,0 1010,0 80 - -
06:39 15,2 11,8 2,0 WSW 5,0 1010,0 80 - -
06:44 15,2 11,7 3,0 SW 5,0 1010,1 80 - -
06:49 15,1 11,4 3,0 SW 5,0 1010,1 79 - 5
06:54 15,0 11,4 3,0 SW 5,0 1010,2 79 - 7
06:59 14,9 11,3 3,0 SSW 6,0 1010,2 79 - 11
07:04 14,9 11,5 3,0 Sur 6,0 1010,3 80 - 14
07:09 14,9 11,4 3,0 Sur 6,0 1010,3 80 - 19
07:14 14,9 11,5 3,0 Sur 5,0 1010,3 80 - 26
07:19 15,0 11,8 2,0 Sur 5,0 1010,5 81 - 33
07:24 15,1 11,8 2,0 Sur 5,0 1010,5 81 - 53
07:29 15,1 11,9 2,0 Sur 3,0 1010,5 81 - 69
07:34 15,2 12,0 2,0 Sur 3,0 1010,6 81 - 81
07:39 15,3 12,1 2,0 Sur 3,0 1010,6 81 - 70
07:44 15,4 12,2 2,0 SSW 5,0 1010,7 81 - 114
07:49 15,6 12,3 2,0 SSW 5,0 1010,7 81 - 130
07:54 15,7 12,4 2,0 SSW 5,0 1010,7 81 - 171
07:59 15,9 12,5 2,0 SSW 6,0 1010,7 80 - 185
08:04 16,2 12,7 3,0 SSW 6,0 1010,8 80 - 181
08:09 16,4 12,8 3,0 SSW 6,0 1011,0 80 - 206
08:14 16,7 12,8 2,0 SSW 5,0 1011,0 79 - 209
08:19 16,9 13,0 2,0 Oeste 5,0 1011,1 78 - 260
08:24 17,2 13,1 2,0 NNW 5,0 1011,2 77 - 260
08:29 17,3 13,0 2,0 NNW 5,0 1011,2 76 - 121
08:34 17,3 13,0 2,0 NNW 5,0 1011,3 76 - 327
08:39 17,4 12,9 3,0 NNW 5,0 1011,4 75 - 353
08:44 17,6 13,1 3,0 NNW 5,0 1011,4 75 - 364
08:49 17,7 13,2 2,0 NW 5,0 1011,5 75 - 366
08:54 17,8 13,1 3,0 NNW 6,0 1011,6 74 - 197
08:59 17,8 13,1 3,0 Norte 6,0 1011,6 74 - 424
09:04 17,9 13,4 2,0 Norte 6,0 1011,6 75 - 401
09:09 18,0 13,9 2,0 WNW 5,0 1011,7 77 - 390
09:14 18,2 14,3 2,0 Oeste 6,0 1011,7 78 - 406
09:19 18,2 14,3 3,0 WNW 6,0 1011,7 78 - 418
09:24 18,4 14,4 3,0 WNW 6,0 1011,7 78 - 446
09:29 18,5 14,4 3,0 NW 6,0 1011,7 77 - 464
09:34 18,6 14,4 3,0 NW 8,0 1011,8 77 - 487
09:39 18,8 14,4 3,0 NNW 8,0 1011,8 76 - 494
09:44 18,9 14,3 3,0 NNW 8,0 1011,8 75 - 504
09:49 19,2 14,4 3,0 NW 8,0 1011,8 74 - 520
09:54 19,7 14,6 5,0 Norte 10,0 1011,8 73 - 536
09:59 20,0 14,6 5,0 NNE 10,0 1011,8 72 - 555
10:04 20,1 14,6 5,0 NE 10,0 1011,8 71 - 571
10:09 20,1 14,2 5,0 Norte 8,0 1011,8 69 - 640
10:14 20,1 14,3 5,0 Norte 10,0 1011,7 70 - 659
10:19 20,5 14,4 3,0 NNE 11,0 1011,7 69 - 663
10:24 20,6 14,4 6,0 WNW 13,0 1011,8 68 - 657
10:29 20,3 14,2 6,0 WNW 13,0 1011,8 68 - 670
10:34 20,3 14,2 6,0 WNW 13,0 1011,7 68 - 670
10:39 20,3 13,8 3,0 SSW 8,0 1011,7 66 - 701
10:44 20,9 13,7 5,0 SE 13,0 1011,7 65 - 682
10:49 21,3 13,7 5,0 NNE 15,0 1011,7 62 - 687
10:54 21,4 14,1 5,0 NNE 15,0 1011,6 63 - 700
10:59 21,2 13,7 5,0 Norte 15,0 1011,6 62 - 712
11:04 21,7 13,9 6,0 NNW 16,0 1011,6 61 - 721
11:09 21,9 13,9 6,0 Norte 16,0 1011,6 61 - 737
11:14 21,8 13,7 6,0 NE 18,0 1011,6 60 - 756
11:19 21,7 13,6 6,0 ENE 18,0 1011,5 61 - 758
11:24 22,3 14,1 6,0 ENE 18,0 1011,5 61 - 786
11:29 22,4 14,1 6,0 Norte 16,0 1011,5 59 - 786
11:34 22,4 14,1 6,0 NNW 16,0 1011,5 59 - 824
11:39 22,4 13,9 5,0 NW 16,0 1011,4 59 - 802
11:44 22,7 13,8 5,0 NNW 16,0 1011,4 58 - 821
11:49 23,1 13,9 8,0 NNW 16,0 1011,3 57 - 847
11:54 23,1 13,8 8,0 Norte 19,0 1011,2 56 - 853
11:59 23,0 13,7 8,0 Norte 19,0 1011,2 56 - 872
12:04 23,4 13,7 6,0 NNW 19,0 1011,2 56 - 893
12:09 23,7 13,7 6,0 NW 13,0 1011,2 54 - 914
12:14 23,8 13,6 6,0 NNW 19,0 1011,2 53 - 909
12:19 23,8 13,4 8,0 NNE 21,0 1011,2 52 - 962
12:24 24,1 13,9 10,0 NNE 21,0 1011,1 53 - 995
12:29 24,2 14,6 8,0 NE 23,0 1011,1 56 - 912
12:34 23,8 14,9 11,0 ENE 31,0 1011,1 59 - 993
12:39 23,4 14,9 15,0 ENE 31,0 1011,1 59 - 1007
12:44 23,5 15,2 16,0 ENE 31,0 1011,1 60 - 991
12:49 23,7 15,2 16,0 ENE 27,0 1011,2 59 - 969
12:54 23,7 15,2 18,0 ENE 27,0 1011,1 59 - 949
12:59 23,8 15,6 18,0 ENE 29,0 1011,0 60 - 956
13:04 23,9 15,7 16,0 Este 29,0 1011,0 60 - 944
13:09 23,7 15,3 18,0 Este 34,0 1011,1 60 - 925
13:14 23,7 15,2 18,0 ENE 34,0 1011,0 59 - 928
13:19 23,4 15,2 19,0 ENE 34,0 1010,9 60 - 928
13:24 23,6 15,6 19,0 ENE 32,0 1010,9 61 - 926
13:29 23,7 15,4 19,0 ENE 32,0 1010,8 60 - 930
13:34 23,4 14,9 19,0 Este 31,0 1010,8 59 - 935
13:39 23,4 15,2 18,0 Este 32,0 1010,8 60 - 935
13:44 23,3 15,3 19,0 Este 37,0 1010,7 61 - 935
13:49 23,4 15,4 19,0 Este 37,0 1010,6 61 - 939
13:54 23,6 15,3 19,0 Este 37,0 1010,6 60 - 939
13:59 23,8 15,6 19,0 Este 34,0 1010,5 60 - 933
14:04 23,8 15,3 19,0 Este 34,0 1010,4 59 - 933
14:09 23,8 15,4 19,0 Este 37,0 1010,4 60 - 930
14:14 23,9 15,7 19,0 Este 37,0 1010,3 60 - 926
14:19 23,9 15,4 19,0 Este 37,0 1010,3 59 - 926
14:24 23,9 15,2 19,0 Este 32,0 1010,3 58 - 926
14:29 23,9 15,4 19,0 Este 32,0 1010,3 59 - 923
14:34 23,9 15,4 19,0 ENE 32,0 1010,2 59 - 921
14:39 23,8 15,3 21,0 ENE 32,0 1010,2 59 - 918
14:44 23,9 15,4 21,0 Este 32,0 1010,1 59 - 914
14:49 23,8 15,1 23,0 Este 35,0 1010,1 58 - 912
14:54 23,7 15,1 23,0 Este 35,0 1010,0 59 - 907
14:59 23,7 15,2 21,0 Este 35,0 1009,9 59 - 904
15:04 23,6 15,0 21,0 Este 37,0 1010,0 59 - 900
15:09 23,6 15,1 23,0 ENE 37,0 1010,0 59 - 893
15:14 23,4 14,7 23,0 Este 37,0 1009,9 58 - 889
15:19 23,4 14,4 23,0 ENE 39,0 1009,8 57 - 882
15:24 23,6 14,4 23,0 ENE 39,0 1009,8 57 - 875
15:29 23,6 14,3 24,0 ENE 39,0 1009,9 57 - 865
15:34 23,6 14,6 24,0 ENE 39,0 1009,8 57 - 861
15:39 23,7 14,7 23,0 ENE 39,0 1009,8 57 - 849
15:44 23,7 14,7 24,0 ENE 42,0 1009,8 57 - 838
15:49 23,4 13,8 24,0 ENE 42,0 1009,7 55 - 835
15:54 23,5 13,9 24,0 ENE 42,0 1009,7 55 - 826
15:59 23,9 13,8 21,0 ENE 39,0 1009,7 54 - 816
16:04 24,0 12,9 21,0 ENE 35,0 1009,7 50 - 809
16:09 24,1 12,7 21,0 ENE 37,0 1009,7 49 - 800
16:14 24,1 13,5 23,0 ENE 37,0 1009,6 52 - 782
16:19 23,9 13,7 23,0 ENE 37,0 1009,4 53 - 777
16:24 24,0 13,8 23,0 ENE 37,0 1009,5 53 - 763
16:29 24,1 13,9 21,0 ENE 37,0 1009,5 53 - 763
16:34 24,1 13,0 23,0 ENE 37,0 1009,5 50 - 747
16:39 24,2 13,1 23,0 ENE 37,0 1009,4 50 - 742
16:44 24,6 13,3 23,0 ENE 34,0 1009,4 50 - 724
16:49 24,6 13,7 19,0 ENE 32,0 1009,3 51 - 707
16:54 24,5 13,7 19,0 ENE 34,0 1009,3 51 - 691
16:59 24,5 13,7 21,0 NE 34,0 1009,2 51 - 680
17:04 24,4 13,4 21,0 ENE 35,0 1009,2 51 - 666
17:09 24,1 13,3 23,0 ENE 39,0 1009,2 51 - 647
17:14 24,1 13,3 23,0 ENE 39,0 1009,1 51 - 617
17:19 24,2 13,3 21,0 ENE 39,0 1009,2 51 - 557
17:24 24,2 13,1 19,0 ENE 32,0 1009,2 50 - 510
17:29 24,1 13,1 21,0 ENE 32,0 1009,2 50 - 471
17:34 24,1 12,7 23,0 ENE 32,0 1009,2 49 - 446
17:39 24,2 12,8 19,0 ENE 32,0 1009,2 49 - 443
17:44 24,1 12,7 19,0 ENE 40,0 1009,2 49 - 445
17:49 24,1 13,1 21,0 ENE 40,0 1009,2 50 - 445
17:54 23,9 12,6 23,0 ENE 40,0 1009,1 49 - 439
17:59 24,1 12,0 23,0 ENE 35,0 1009,1 47 - 425
18:04 24,1 11,8 23,0 NE 35,0 1009,1 46 - 401

Descarga tu copia de esta fecha  de WeatherUnderground

Tus datos se guardaran en Weather Underground. Original script de Jim McMurry. Reescrito para uso de plantilla Leuven-Template